Temp
-26 -28 -28 -28 -28 -28 -27 -27 -26 -26 -26 -26 -26 -26 -26 -26 -26 -26 -26 -26 -26 -25 -25 -24 -25 -25 -25 -25 -25 -24 -24 -23 -23 -23 -22 -21 -21 -21 -20 -19 -19 -18 -17 -17 -18 -18 -16 -16 -16 -16 -17 -16 -16 -16
-25 -27 -28 -28 -28 -28 -27 -26 -26 -25 -26 -26 -26 -26 -26 -26 -26 -25 -25 -25 -25 -24 -24 -24 -24 -25 -25 -26 -26 -26 -25 -24 -24 -24 -22 -22 -21 -20 -20 -19 -19 -19 -19 -19 -18 -17 -18 -17 -17 -17 -17 -17 -17 -16
-25 -26 -27 -28 -28 -28 -27 -26 -26 -25 -25 -25 -26 -26 -25 -25 -25 -25 -24 -24 -25 -24 -24 -25 -25 -25 -25 -25 -26 -27 -25 -25 -25 -24 -23 -22 -22 -21 -20 -20 -20 -20 -19 -19 -18 -18 -18 -17 -17 -17 -17 -17 -17 -17
-24 -25 -27 -28 -28 -28 -28 -27 -26 -25 -25 -25 -25 -25 -25 -25 -25 -24 -24 -24 -24 -25 -25 -25 -25 -25 -25 -25 -26 -27 -26 -25 -25 -24 -23 -23 -22 -22 -21 -20 -20 -19 -19 -19 -18 -18 -18 -18 -18 -18 -18 -18 -18 -17
-24 -24 -26 -27 -28 -28 -28 -28 -27 -26 -25 -25 -25 -25 -25 -25 -25 -24 -24 -25 -25 -25 -25 -25 -25 -25 -25 -25 -26 -26 -25 -25 -24 -23 -23 -23 -23 -23 -22 -22 -21 -20 -20 -20 -20 -20 -20 -19 -19 -19 -18 -18 -18 -17
-24 -24 -25 -26 -27 -28 -28 -28 -28 -27 -26 -25 -25 -25 -25 -25 -25 -24 -24 -24 -25 -25 -25 -25 -25 -25 -26 -26 -26 -25 -24 -24 -24 -24 -23 -23 -22 -22 -22 -22 -21 -21 -20 -21 -20 -20 -19 -20 -19 -19 -19 -18 -17 -17
-24 -24 -24 -25 -27 -28 -29 -29 -28 -28 -27 -26 -25 -25 -25 -25 -24 -24 -24 -24 -24 -24 -25 -24 -25 -25 -24 -24 -24 -24 -24 -24 -24 -24 -24 -23 -23 -23 -22 -22 -22 -21 -21 -21 -21 -21 -21 -21 -20 -20 -19 -18 -18 -18
-24 -24 -25 -25 -25 -27 -28 -29 -29 -29 -28 -27 -26 -25 -25 -25 -25 -25 -24 -24 -24 -25 -24 -24 -24 -24 -24 -24 -24 -24 -23 -24 -24 -24 -23 -23 -23 -22 -23 -23 -22 -21 -21 -22 -21 -21 -20 -20 -20 -19 -19 -19 -19 -19
-23 -24 -25 -25 -25 -26 -27 -28 -29 -29 -29 -29 -28 -26 -26 -25 -25 -25 -25 -24 -24 -24 -24 -24 -24 -24 -24 -24 -24 -24 -24 -24 -24 -24 -24 -24 -23 -22 -22 -22 -21 -21 -21 -22 -21 -21 -20 -20 -20 -20 -20 -20 -20 -20
-23 -24 -24 -25 -25 -25 -26 -27 -28 -28 -29 -29 -28 -28 -26 -26 -26 -26 -25 -25 -25 -25 -25 -25 -25 -24 -24 -24 -24 -24 -24 -24 -24 -24 -23 -23 -23 -23 -23 -23 -23 -22 -22 -22 -22 -21 -21 -21 -20 -21 -21 -21 -21 -21
-24 -24 -24 -24 -25 -25 -25 -26 -27 -28 -29 -29 -29 -29 -28 -27 -26 -26 -26 -26 -26 -26 -26 -25 -25 -25 -25 -25 -25 -25 -24 -24 -24 -24 -24 -23 -23 -23 -23 -23 -22 -23 -22 -22 -22 -21 -21 -21 -21 -22 -22 -22 -22 -22
-24 -24 -24 -25 -25 -25 -25 -26 -27 -28 -29 -29 -29 -29 -29 -28 -27 -27 -26 -26 -26 -26 -26 -26 -26 -26 -26 -26 -26 -25 -25 -25 -24 -24 -24 -24 -24 -24 -24 -24 -23 -23 -23 -23 -23 -22 -22 -23 -23 -23 -23 -23 -23 -24
-24 -24 -24 -25 -25 -25 -25 -25 -26 -27 -28 -29 -29 -30 -30 -30 -29 -28 -27 -27 -26 -26 -26 -26 -26 -26 -26 -26 -26 -26 -26 -25 -25 -25 -25 -25 -25 -25 -24 -24 -24 -24 -23 -23 -23 -23 -23 -23 -23 -24 -24 -25 -25 -25
-24 -24 -24 -25 -25 -25 -26 -26 -26 -26 -28 -29 -29 -29 -30 -30 -30 -29 -29 -28 -27 -27 -27 -26 -26 -26 -26 -26 -26 -26 -26 -26 -26 -26 -25 -25 -25 -25 -25 -25 -25 -24 -24 -24 -24 -24 -24 -24 -25 -25 -25 -25 -25 -25
-25 -25 -25 -25 -25 -25 -26 -26 -26 -26 -27 -28 -29 -29 -29 -29 -29 -29 -29 -29 -29 -29 -28 -27 -27 -27 -27 -27 -27 -27 -27 -26 -26 -26 -26 -26 -26 -25 -25 -25 -25 -25 -25 -25 -25 -25 -26 -26 -26 -26 -26 -25 -25 -26
-25 -25 -25 -25 -25 -25 -26 -26 -26 -26 -26 -27 -28 -29 -29 -30 -30 -30 -30 -30 -29 -29 -30 -30 -29 -28 -28 -28 -27 -27 -27 -27 -27 -26 -26 -26 -26 -26 -26 -26 -26 -26 -26 -26 -26 -26 -26 -25 -25 -25 -26 -26 -27 -27
-25 -25 -26 -25 -25 -26 -26 -26 -26 -26 -26 -27 -28 -29 -29 -30 -30 -30 -30 -30 -30 -30 -30 -30 -30 -30 -30 -30 -30 -30 -29 -29 -29 -28 -28 -28 -27 -27 -27 -27 -27 -27 -27 -27 -27 -27 -27 -27 -27 -27 -27 -27 -27 -27
-26 -26 -26 -26 -26 -26 -26 -26 -26 -26 -26 -26 -27 -28 -29 -30 -30 -30 -30 -30 -30 -30 -30 -30 -30 -30 -30 -30 -30 -30 -30 -30 -30 -30 -30 -30 -29 -29 -29 -29 -29 -29 -29 -29 -29 -29 -28 -28 -28 -28 -28 -28 -28 -28
-26 -26 -26 -26 -26 -26 -26 -26 -26 -26 -26 -26 -26 -27 -28 -29 -30 -30 -30 -30 -30 -30 -30 -30 -30 -30 -30 -30 -30 -30 -30 -30 -30 -30 -30 -30 -30 -29 -29 -29 -29 -29 -29 -29 -29 -29 -29 -29 -29 -29 -29 -29 -29 -29
-26 -26 -26 -26 -26 -26 -26 -26 -26 -26 -26 -27 -26 -26 -27 -28 -28 -29 -30 -30 -30 -30 -30 -30 -31 -30 -30 -30 -30 -30 -30 -30 -30 -30 -30 -30 -30 -30 -30 -29 -29 -29 -29 -30 -30 -30 -30 -30 -29 -29 -29 -29 -29 -29
-26 -26 -26 -26 -26 -26 -26 -26 -26 -26 -26 -27 -27 -26 -26 -27 -27 -28 -29 -30 -30 -30 -30 -30 -31 -31 -30 -30 -30 -30 -30 -30 -30 -30 -30 -30 -30 -30 -30 -30 -30 -30 -30 -30 -30 -30 -30 -30 -30 -30 -30 -30 -30 -29
-26 -26 -26 -26 -26 -26 -26 -26 -26 -27 -26 -27 -27 -27 -27 -26 -26 -26 -27 -28 -29 -30 -30 -30 -30 -30 -31 -31 -30 -31 -31 -31 -31 -30 -30 -30 -30 -30 -30 -30 -30 -30 -30 -30 -30 -30 -30 -30 -30 -30 -30 -30 -30 -30
-28 -27 -27 -27 -26 -26 -26 -27 -26 -27 -27 -27 -27 -27 -27 -27 -26 -27 -27 -27 -28 -29 -29 -30 -30 -31 -31 -31 -31 -31 -30 -30 -30 -31 -30 -30 -30 -30 -30 -30 -30 -30 -30 -30 -30 -30 -30 -30 -30 -30 -30 -30 -30 -30
-29 -28 -28 -28 -27 -27 -27 -27 -27 -27 -27 -27 -27 -27 -27 -27 -27 -27 -27 -27 -27 -27 -27 -28 -29 -30 -30 -31 -31 -31 -31 -31 -31 -31 -31 -31 -31 -31 -30 -30 -30 -30 -30 -30 -30 -30 -30 -30 -30 -30 -30 -30 -30 -30
-31 -30 -30 -29 -28 -28 -28 -28 -28 -28 -28 -28 -27 -27 -27 -28 -27 -27 -27 -27 -27 -27 -27 -28 -28 -28 -29 -29 -30 -30 -31 -31 -31 -31 -31 -31 -31 -31 -31 -31 -31 -31 -30 -30 -30 -30 -30 -30 -30 -30 -30 -30 -30 -30
-32 -32 -31 -30 -29 -29 -29 -29 -28 -28 -29 -29 -28 -28 -28 -28 -28 -28 -28 -28 -28 -28 -28 -28 -28 -28 -28 -28 -29 -29 -29 -30 -30 -30 -31 -31 -31 -31 -31 -31 -31 -31 -31 -31 -31 -31 -31 -31 -31 -31 -31 -30 -30 -30
-34 -34 -32 -32 -31 -31 -30 -30 -30 -30 -30 -29 -28 -28 -28 -28 -28 -28 -28 -28 -28 -28 -28 -28 -28 -29 -29 -29 -29 -29 -29 -29 -29 -29 -29 -29 -30 -30 -30 -31 -31 -31 -31 -31 -31 -31 -31 -31 -31 -31 -31 -30 -30 -31
-36 -35 -34 -34 -33 -32 -32 -31 -31 -31 -30 -29 -29 -29 -29 -29 -28 -28 -29 -29 -29 -29 -29 -29 -29 -29 -29 -29 -29 -29 -29 -30 -30 -30 -30 -30 -29 -29 -29 -29 -30 -31 -31 -32 -32 -32 -32 -31 -31 -31 -31 -31 -31 -31
-36 -35 -35 -35 -35 -34 -33 -32 -32 -31 -31 -30 -30 -29 -29 -29 -29 -29 -29 -29 -29 -29 -29 -29 -29 -29 -29 -29 -30 -30 -30 -30 -30 -30 -30 -30 -30 -30 -30 -30 -30 -29 -30 -31 -32 -33 -33 -32 -32 -32 -32 -32 -32 -32
-36 -35 -35 -34 -34 -34 -34 -33 -33 -32 -32 -31 -31 -30 -30 -30 -30 -30 -29 -29 -29 -29 -29 -29 -29 -29 -29 -30 -30 -30 -30 -30 -30 -30 -30 -30 -30 -30 -30 -30 -30 -30 -30 -30 -31 -33 -34 -33 -33 -33 -33 -32 -32 -32
-36 -35 -35 -34 -34 -34 -33 -33 -33 -33 -32 -32 -31 -31 -31 -30 -30 -30 -30 -29 -29 -29 -30 -30 -30 -30 -30 -30 -30 -30 -30 -30 -30 -30 -30 -30 -30 -30 -30 -30 -30 -30 -30 -30 -31 -33 -34 -34 -34 -33 -33 -33 -33 -32
-36 -36 -35 -35 -34 -34 -33 -33 -33 -33 -32 -31 -31 -31 -31 -31 -30 -30 -30 -30 -29 -29 -29 -29 -29 -29 -29 -30 -30 -29 -30 -30 -30 -30 -30 -30 -30 -30 -30 -30 -30 -30 -30 -30 -31 -32 -34 -35 -34 -34 -34 -33 -33 -33
-36 -36 -36 -35 -34 -34 -34 -34 -33 -33 -33 -32 -32 -31 -31 -31 -31 -30 -30 -30 -30 -30 -29 -29 -30 -30 -30 -30 -29 -29 -30 -30 -30 -30 -30 -30 -30 -30 -31 -31 -31 -30 -30 -30 -30 -32 -34 -35 -35 -35 -34 -34 -34 -33
Height
5381 5371 5365 5361 5358 5355 5353 5351 5349 5348 5347 5348 5348 5349 5350 5350 5349 5345 5344 5342 5336 5334 5336 5339 5343 5347 5353 5356 5363 5376 5371 5377 5386 5393 5401 5410 5415 5427 5438 5449 5458 5471 5480 5482 5485 5493 5500 5511 5513 5517 5523 5524 5525 5529
5385 5376 5368 5362 5358 5354 5352 5350 5348 5347 5346 5347 5347 5347 5347 5345 5342 5337 5335 5332 5329 5324 5331 5332 5334 5337 5340 5347 5351 5354 5362 5371 5381 5392 5396 5406 5414 5426 5433 5440 5450 5457 5465 5472 5478 5486 5496 5499 5507 5506 5508 5511 5514 5517
5388 5379 5372 5364 5359 5355 5351 5349 5347 5345 5344 5344 5344 5344 5342 5339 5336 5331 5329 5325 5320 5319 5321 5324 5329 5331 5332 5338 5343 5345 5349 5360 5369 5383 5394 5400 5411 5422 5428 5434 5442 5447 5454 5461 5468 5475 5483 5488 5491 5494 5497 5499 5501 5505
5390 5381 5374 5368 5362 5356 5351 5346 5344 5342 5341 5341 5340 5340 5338 5335 5331 5329 5325 5319 5314 5312 5315 5320 5323 5324 5328 5332 5336 5342 5347 5353 5364 5375 5386 5394 5403 5410 5414 5422 5428 5436 5440 5450 5455 5461 5468 5473 5477 5480 5483 5486 5490 5493
5392 5383 5375 5369 5363 5358 5352 5346 5341 5338 5337 5337 5336 5335 5335 5332 5329 5327 5324 5320 5315 5314 5315 5318 5320 5323 5327 5331 5335 5342 5347 5355 5363 5371 5374 5381 5388 5397 5403 5409 5416 5426 5433 5437 5445 5452 5455 5459 5461 5466 5471 5475 5479 5481
5392 5383 5376 5368 5362 5356 5351 5346 5341 5335 5332 5332 5333 5332 5332 5330 5327 5325 5325 5324 5320 5319 5320 5321 5323 5326 5329 5332 5335 5340 5346 5354 5360 5366 5369 5374 5380 5389 5395 5398 5409 5418 5424 5429 5435 5439 5444 5446 5453 5456 5461 5464 5468 5469
5392 5383 5376 5368 5361 5356 5350 5345 5340 5334 5330 5327 5327 5328 5328 5328 5325 5324 5324 5324 5323 5322 5323 5326 5327 5329 5332 5335 5338 5341 5344 5349 5355 5358 5364 5370 5377 5382 5387 5394 5402 5409 5413 5417 5422 5426 5432 5437 5441 5444 5448 5452 5455 5458
5390 5383 5375 5367 5360 5354 5348 5343 5338 5333 5328 5324 5323 5324 5324 5325 5324 5322 5320 5321 5322 5323 5324 5325 5327 5330 5332 5334 5337 5339 5342 5346 5350 5353 5357 5363 5368 5374 5381 5388 5392 5399 5403 5406 5409 5414 5419 5424 5427 5431 5435 5439 5443 5446
5387 5380 5373 5366 5359 5352 5346 5340 5336 5331 5327 5323 5319 5319 5320 5321 5322 5321 5319 5318 5318 5321 5321 5323 5324 5326 5329 5332 5335 5338 5341 5343 5345 5348 5352 5357 5361 5367 5373 5375 5379 5382 5388 5394 5397 5401 5409 5415 5417 5420 5425 5428 5431 5434
5384 5376 5370 5363 5357 5351 5345 5338 5333 5329 5326 5321 5318 5315 5314 5316 5317 5318 5318 5317 5316 5316 5316 5318 5320 5322 5326 5327 5330 5334 5336 5338 5341 5344 5348 5351 5357 5363 5368 5371 5374 5378 5382 5385 5389 5395 5400 5404 5407 5410 5413 5417 5420 5425
5380 5374 5367 5361 5354 5348 5343 5337 5332 5327 5323 5320 5316 5313 5311 5311 5313 5314 5315 5316 5316 5317 5316 5316 5318 5320 5322 5324 5326 5329 5331 5333 5336 5340 5344 5348 5353 5357 5361 5365 5368 5370 5373 5377 5380 5384 5389 5393 5396 5401 5404 5408 5413 5417
5374 5369 5363 5357 5352 5346 5340 5335 5330 5325 5322 5320 5316 5313 5309 5308 5308 5310 5311 5313 5314 5315 5316 5316 5317 5319 5321 5323 5326 5328 5330 5332 5333 5337 5340 5344 5348 5351 5355 5358 5361 5364 5368 5371 5375 5379 5383 5386 5390 5394 5397 5401 5405 5408
5368 5363 5358 5353 5347 5343 5337 5332 5327 5323 5320 5317 5315 5312 5310 5308 5305 5305 5306 5309 5310 5312 5314 5315 5317 5318 5320 5322 5324 5326 5327 5329 5332 5335 5337 5341 5344 5347 5350 5354 5357 5360 5363 5366 5370 5373 5377 5381 5384 5387 5391 5394 5398 5401
5363 5357 5353 5348 5343 5338 5334 5329 5325 5320 5317 5315 5313 5310 5309 5307 5305 5303 5302 5303 5305 5307 5309 5311 5313 5315 5317 5319 5320 5322 5324 5327 5329 5332 5335 5338 5341 5343 5346 5349 5353 5356 5359 5362 5366 5369 5372 5375 5379 5382 5385 5389 5391 5392
5355 5350 5347 5343 5338 5334 5330 5326 5322 5317 5314 5312 5310 5308 5306 5306 5304 5303 5302 5301 5300 5300 5302 5306 5308 5311 5312 5315 5317 5319 5321 5322 5324 5327 5331 5334 5336 5339 5342 5345 5347 5350 5353 5356 5359 5362 5365 5368 5371 5374 5377 5379 5380 5382
5346 5343 5339 5336 5331 5328 5325 5322 5318 5315 5311 5308 5306 5306 5304 5303 5303 5302 5301 5300 5300 5299 5299 5300 5302 5303 5306 5309 5311 5312 5315 5317 5320 5322 5325 5328 5331 5334 5337 5340 5343 5345 5348 5350 5353 5355 5358 5360 5363 5365 5367 5370 5373 5376
5336 5333 5330 5328 5325 5321 5319 5316 5313 5311 5307 5304 5302 5301 5301 5301 5301 5301 5301 5301 5300 5300 5300 5300 5301 5303 5304 5305 5307 5308 5310 5312 5313 5315 5317 5320 5322 5325 5328 5331 5334 5336 5339 5342 5344 5347 5349 5352 5354 5357 5361 5364 5368 5371
5326 5323 5322 5319 5316 5314 5312 5309 5307 5306 5303 5301 5298 5297 5296 5296 5298 5299 5299 5299 5300 5300 5300 5301 5302 5303 5304 5304 5305 5307 5308 5309 5311 5312 5314 5315 5317 5319 5322 5325 5327 5330 5333 5335 5338 5341 5344 5347 5350 5353 5357 5360 5364 5367
5314 5312 5310 5310 5308 5305 5304 5303 5300 5299 5298 5296 5294 5292 5291 5291 5292 5294 5295 5297 5298 5298 5300 5300 5301 5301 5302 5303 5304 5305 5306 5308 5309 5310 5312 5313 5314 5316 5318 5320 5323 5326 5329 5331 5334 5337 5340 5343 5346 5350 5353 5356 5360 5363
5301 5299 5298 5298 5297 5296 5294 5295 5293 5292 5292 5291 5289 5287 5287 5286 5286 5287 5289 5291 5293 5295 5296 5298 5298 5299 5301 5303 5304 5305 5306 5307 5308 5310 5311 5313 5314 5315 5317 5319 5321 5324 5326 5329 5332 5335 5338 5340 5343 5346 5349 5353 5357 5360
5286 5284 5284 5284 5284 5284 5285 5285 5285 5284 5283 5284 5282 5283 5283 5281 5281 5281 5282 5284 5286 5290 5291 5293 5294 5296 5298 5300 5301 5303 5304 5306 5308 5309 5311 5312 5314 5315 5317 5318 5320 5322 5324 5327 5329 5332 5335 5337 5340 5343 5345 5349 5353 5356
5267 5266 5266 5267 5268 5268 5273 5275 5275 5275 5275 5275 5276 5276 5277 5277 5276 5276 5277 5277 5280 5282 5283 5286 5289 5291 5293 5295 5297 5299 5301 5303 5305 5307 5308 5310 5311 5313 5315 5316 5318 5320 5322 5324 5326 5328 5331 5334 5336 5339 5342 5345 5348 5351
5241 5244 5246 5249 5251 5252 5259 5263 5264 5265 5265 5267 5267 5268 5271 5271 5272 5272 5273 5273 5274 5275 5276 5279 5281 5283 5285 5287 5289 5292 5295 5297 5299 5301 5304 5305 5307 5309 5310 5312 5314 5316 5317 5319 5321 5324 5326 5329 5331 5334 5337 5339 5342 5345
5213 5218 5223 5226 5232 5236 5242 5249 5252 5254 5255 5257 5258 5259 5263 5265 5266 5267 5269 5269 5270 5270 5271 5273 5274 5276 5278 5280 5282 5284 5286 5288 5290 5292 5294 5296 5298 5301 5304 5306 5308 5310 5312 5314 5316 5318 5320 5322 5324 5327 5329 5332 5334 5337
5190 5195 5200 5206 5214 5221 5226 5234 5238 5241 5245 5246 5247 5250 5254 5256 5259 5262 5264 5264 5266 5267 5268 5269 5270 5271 5272 5274 5275 5277 5278 5280 5282 5283 5286 5288 5290 5292 5294 5296 5298 5300 5303 5305 5307 5309 5312 5314 5317 5319 5322 5324 5326 5328
5173 5177 5184 5190 5198 5206 5211 5219 5224 5228 5233 5235 5237 5241 5245 5248 5251 5255 5257 5258 5261 5263 5265 5267 5268 5269 5271 5272 5272 5273 5274 5275 5275 5276 5278 5279 5281 5282 5284 5287 5289 5291 5292 5295 5297 5299 5302 5304 5307 5309 5312 5315 5317 5320
5161 5166 5172 5179 5186 5192 5198 5205 5211 5216 5221 5224 5228 5232 5235 5238 5243 5248 5249 5252 5255 5258 5260 5262 5264 5266 5267 5268 5269 5270 5271 5272 5273 5273 5274 5274 5274 5274 5275 5276 5278 5280 5281 5284 5286 5289 5292 5294 5297 5299 5302 5304 5307 5310
5156 5158 5163 5169 5175 5180 5187 5194 5199 5205 5210 5214 5218 5221 5225 5231 5236 5239 5242 5245 5248 5251 5254 5256 5258 5260 5262 5264 5265 5266 5267 5267 5268 5268 5269 5269 5269 5268 5268 5268 5267 5267 5268 5270 5273 5276 5278 5281 5284 5287 5290 5292 5295 5297
5147 5150 5155 5160 5166 5173 5178 5184 5190 5195 5201 5205 5209 5213 5218 5222 5226 5230 5234 5238 5241 5244 5247 5249 5252 5254 5256 5258 5259 5260 5260 5261 5262 5262 5262 5262 5262 5262 5260 5259 5258 5256 5255 5254 5256 5259 5263 5266 5270 5273 5276 5280 5282 5285
5141 5143 5147 5151 5156 5162 5169 5175 5181 5186 5192 5196 5200 5204 5208 5213 5217 5221 5226 5230 5233 5236 5239 5241 5244 5246 5248 5250 5251 5252 5252 5253 5254 5254 5255 5254 5253 5253 5252 5250 5248 5246 5243 5241 5240 5242 5246 5250 5255 5259 5263 5267 5271 5274
5135 5137 5141 5145 5150 5155 5160 5165 5171 5178 5182 5187 5191 5195 5200 5204 5208 5212 5216 5219 5223 5227 5230 5232 5234 5237 5239 5240 5242 5243 5244 5244 5245 5245 5246 5246 5245 5244 5243 5241 5239 5236 5232 5228 5225 5226 5229 5234 5239 5244 5249 5254 5258 5261
5133 5134 5137 5140 5144 5148 5154 5159 5164 5169 5173 5180 5184 5188 5193 5197 5201 5204 5207 5210 5214 5217 5220 5223 5225 5228 5230 5231 5233 5234 5235 5236 5236 5237 5237 5237 5236 5235 5233 5232 5229 5226 5222 5217 5212 5211 5213 5217 5224 5229 5235 5239 5244 5248
5131 5132 5134 5136 5139 5143 5148 5153 5158 5163 5168 5172 5177 5181 5186 5189 5192 5195 5199 5202 5206 5209 5213 5215 5217 5219 5221 5222 5224 5226 5227 5227 5227 5228 5228 5228 5227 5226 5225 5223 5220 5217 5212 5206 5201 5199 5199 5203 5210 5215 5221 5226 5232 5236
Wind_Speed
43 34 27 22 18 16 15 12 12 12 8 9 13 13 14 17 22 26 31 34 41 44 36 26 26 29 31 36 38 42 54 67 79 79 76 64 59 50 61 59 61 66 68 71 67 61 48 42 50 49 47 47 46 42
45 39 29 23 19 16 15 14 14 13 11 12 14 16 16 19 17 26 26 23 26 31 21 22 23 23 33 32 33 39 47 57 69 71 83 70 64 72 66 69 69 74 68 66 69 69 64 57 59 52 46 44 46 48
45 39 36 29 22 18 15 15 16 16 14 14 16 15 15 18 18 17 17 23 30 35 31 25 22 23 30 37 31 40 50 51 55 69 65 58 66 52 50 64 52 50 54 56 58 67 61 57 56 50 48 39 39 39
46 40 35 32 30 26 21 15 15 18 19 19 19 17 15 18 12 8 8 13 17 18 22 20 20 22 25 33 29 26 29 43 52 59 65 69 65 67 53 45 48 51 46 46 54 52 53 56 52 51 50 45 44 42
44 43 37 32 30 29 27 21 14 17 20 21 20 20 15 17 11 5 5 9 9 6 5 10 12 21 18 21 22 18 12 28 42 53 47 53 57 58 58 56 49 52 57 54 50 49 47 48 50 48 49 49 48 46
40 40 38 35 33 31 31 27 21 15 17 20 21 21 16 14 11 10 6 2 9 9 9 9 10 15 20 19 25 18 21 20 21 43 54 55 51 58 57 40 56 70 48 38 44 46 49 49 44 43 45 49 47 47
38 37 37 34 32 31 29 28 26 20 14 16 20 21 18 13 10 12 11 9 6 5 5 10 12 12 12 17 16 19 14 24 21 26 53 59 48 52 49 42 46 45 46 46 50 44 44 44 49 50 44 48 51 43
36 35 35 34 32 30 28 28 27 23 19 12 15 20 19 16 10 10 13 12 12 18 14 14 13 10 5 6 12 18 17 21 28 19 34 49 50 53 55 53 55 54 52 46 49 45 44 45 47 45 46 38 41 45
35 34 33 33 32 30 29 27 26 23 20 16 12 15 20 18 15 11 11 14 12 13 18 20 22 16 14 10 12 17 21 21 25 24 24 26 37 40 39 46 43 48 52 46 42 47 45 39 39 41 40 44 46 42
33 33 32 31 31 30 29 26 25 22 22 17 15 11 18 20 18 14 12 11 10 8 9 10 15 21 17 18 15 18 23 27 31 26 26 28 33 36 34 33 37 39 39 38 36 41 41 43 42 41 40 41 41 42
32 32 32 31 30 31 29 27 23 20 23 17 15 13 12 18 17 17 16 13 12 7 8 13 14 18 15 13 12 14 14 15 20 22 24 27 34 33 32 35 37 29 28 32 34 34 35 37 38 39 40 40 39 36
30 30 31 30 29 28 29 27 24 20 19 18 14 11 9 9 16 20 20 18 19 19 13 14 20 18 17 19 17 17 17 18 19 17 18 19 20 21 20 24 27 29 31 30 30 32 34 36 37 35 31 28 27 27
30 29 29 29 28 27 26 26 25 20 17 16 15 12 12 11 10 12 24 23 26 22 20 19 24 23 21 23 23 22 21 20 19 20 21 22 23 25 26 27 29 33 35 35 36 35 33 30 29 28 27 26 27 27
30 29 27 29 28 27 24 24 24 23 18 15 15 12 10 8 8 7 6 13 21 23 20 23 25 28 27 25 23 22 22 21 21 20 21 22 22 22 24 25 27 28 27 26 26 26 27 28 28 28 27 28 29 31
30 31 27 27 28 27 25 22 22 22 20 16 14 13 10 9 8 8 6 5 6 9 16 24 25 24 23 23 23 23 22 23 24 25 24 23 23 23 22 23 23 24 24 25 25 26 26 27 28 30 31 32 31 26
31 31 29 25 27 27 25 24 20 20 20 17 14 11 9 9 8 6 7 9 7 7 7 10 10 14 19 20 22 23 24 24 25 26 26 26 27 27 27 27 28 28 29 30 32 32 33 32 31 30 28 25 23 22
33 32 29 26 27 28 25 24 23 19 18 17 16 13 10 9 9 10 7 6 4 3 3 5 6 7 6 7 7 8 10 11 13 16 19 22 24 25 25 25 24 24 24 24 25 25 25 23 22 22 23 23 22 19
35 35 32 28 25 29 26 24 24 20 16 17 17 15 14 14 12 11 10 7 5 5 4 4 6 8 6 6 8 8 7 8 5 6 9 11 13 14 15 16 16 17 17 18 19 19 18 19 19 21 22 22 21 20
38 37 36 32 28 27 29 24 24 22 18 16 16 15 14 16 17 16 16 14 11 9 8 6 5 7 6 6 9 7 8 9 8 9 10 9 8 12 11 13 17 17 16 17 18 19 18 16 17 19 21 21 22 24
40 41 40 37 34 29 30 26 24 23 20 19 15 15 12 13 15 18 21 20 19 15 11 9 11 11 9 8 7 7 6 10 13 12 9 7 7 9 10 11 13 14 16 16 17 18 18 17 17 20 22 22 23 22
44 45 44 43 41 36 31 28 25 25 22 21 19 15 12 12 11 13 17 20 22 21 21 20 17 14 14 14 12 11 10 8 7 9 10 11 9 10 10 10 12 14 16 17 16 17 19 18 17 20 22 21 23 23
51 51 49 48 47 44 36 31 28 25 24 24 23 18 15 13 11 9 10 13 15 21 27 27 25 25 24 21 18 17 16 15 15 14 13 12 12 12 12 13 13 15 16 18 20 20 20 21 21 21 24 25 26 24
58 56 55 53 51 50 41 33 31 26 26 24 26 24 17 15 13 10 6 8 12 18 21 22 23 24 24 26 28 28 27 27 26 23 22 21 19 18 18 17 19 19 18 18 19 20 22 22 23 23 28 30 30 31
55 54 54 54 52 51 44 33 33 30 27 24 27 27 22 20 17 12 8 9 10 9 9 13 17 21 23 25 25 24 24 24 25 28 30 30 29 28 28 27 27 26 24 24 24 23 22 22 23 27 28 28 29 30
47 47 49 50 49 48 44 35 33 33 27 26 28 28 26 26 22 17 13 14 11 9 8 7 7 8 9 11 15 19 22 26 27 27 26 26 27 27 28 29 31 34 34 32 31 31 30 29 28 27 27 28 31 31
39 43 43 44 42 41 40 34 34 35 28 29 31 29 28 29 26 20 18 19 15 12 11 10 9 8 7 6 6 5 7 9 12 15 20 25 29 30 30 30 30 31 33 34 35 37 36 34 34 34 35 34 32 32
33 36 38 38 37 36 35 31 32 30 28 29 28 28 31 33 30 24 26 22 18 16 16 14 12 12 11 10 9 9 8 8 8 7 8 10 13 17 25 34 39 40 39 39 39 39 38 37 37 37 36 36 35 36
24 28 30 31 31 32 30 31 32 30 31 30 29 30 31 30 31 31 29 27 24 22 20 18 17 17 16 15 14 14 14 14 14 14 14 15 15 15 15 18 22 30 40 47 47 45 43 41 41 42 40 38 38 38
23 22 25 26 28 27 25 27 27 30 32 29 28 29 29 29 29 31 32 31 30 28 26 25 24 23 22 21 21 21 20 20 19 19 19 19 19 20 21 21 22 24 27 33 43 48 46 45 44 44 43 40 36 37
20 22 23 29 32 33 33 32 29 27 25 24 24 27 29 30 30 28 27 28 30 30 29 28 28 27 27 25 24 24 24 23 23 22 22 21 22 22 22 23 24 26 27 28 33 43 45 45 44 43 41 42 41 38
12 17 21 27 31 34 37 38 36 34 32 31 29 29 29 30 30 30 29 29 29 28 27 27 28 27 26 26 25 25 25 25 24 23 23 23 23 23 23 24 25 27 29 30 30 36 47 48 47 47 43 42 41 40
4 9 16 23 28 33 36 38 37 38 37 35 32 31 31 29 30 31 31 32 31 31 29 28 27 26 26 25 25 25 24 24 23 22 22 22 23 23 24 24 26 27 28 29 28 31 41 50 51 46 44 42 42 42
11 7 8 16 22 29 33 35 35 34 33 34 34 30 29 31 32 33 33 32 31 29 28 27 27 26 25 25 25 24 23 21 20 20 21 21 22 23 23 24 25 27 28 28 26 24 32 45 46 44 44 44 41 40
Wind_Direction
4 10 13 7 359 351 342 321 301 290 279 233 231 248 266 274 283 276 268 265 265 276 276 264 254 242 231 230 233 224 222 215 218 222 225 222 220 236 227 229 231 233 236 233 241 242 243 245 255 256 262 264 263 263
6 8 11 10 1 353 339 315 298 289 281 246 258 266 279 291 286 275 284 278 273 265 254 243 242 232 222 220 224 230 226 218 218 222 225 224 229 228 232 237 241 241 236 242 245 249 253 263 261 256 259 261 264 268
5 8 11 13 6 356 345 320 298 287 277 267 271 277 292 289 293 294 286 270 254 258 250 241 239 228 219 216 236 220 221 214 208 217 219 227 225 220 234 240 236 237 243 246 248 255 260 254 248 255 254 258 268 272
1 4 5 4 7 4 352 331 300 287 272 273 280 288 302 294 300 294 289 319 257 241 236 224 222 224 211 215 225 229 216 212 208 211 222 223 224 225 233 235 238 225 222 230 237 236 237 242 246 254 258 266 271 268
358 358 358 358 359 360 356 347 318 290 277 267 272 285 302 301 299 251 352 15 62 96 192 186 194 197 201 201 198 198 193 215 217 207 207 213 227 231 236 250 241 242 246 248 252 250 248 248 250 254 262 268 258 260
354 356 355 352 349 347 349 351 343 307 283 268 259 274 291 303 290 242 249 167 97 107 113 124 161 185 208 195 181 193 205 209 234 224 223 213 217 226 231 246 239 236 238 240 243 241 242 251 261 249 260 254 252 256
349 352 354 352 347 345 344 343 345 341 305 275 261 259 277 297 259 233 222 243 227 142 159 148 192 203 179 175 185 190 197 208 234 228 220 226 226 229 239 250 249 253 255 259 257 256 254 255 251 254 247 246 250 244
346 345 348 351 349 344 340 336 338 340 334 298 267 253 259 270 261 244 247 218 224 246 251 234 201 203 218 213 222 217 211 234 230 223 224 233 238 244 249 250 249 252 256 259 250 247 247 245 242 240 239 247 261 256
343 342 343 346 348 346 341 338 334 335 334 325 302 250 243 256 255 252 239 228 218 222 235 252 253 263 268 251 227 220 214 231 221 230 226 219 223 239 250 250 245 250 247 243 246 251 246 238 244 237 254 258 252 248
337 340 338 340 344 345 345 341 337 331 334 322 309 267 234 242 251 255 236 213 207 199 208 236 272 276 281 271 266 259 241 230 224 226 225 226 222 221 233 237 235 233 232 234 233 237 239 244 243 241 243 240 235 234
333 334 335 333 338 341 344 344 343 336 336 333 323 314 266 234 234 237 235 218 221 227 236 231 235 260 275 268 257 234 216 212 216 217 228 234 231 232 239 237 238 241 234 236 236 235 232 232 233 230 226 225 226 229
327 328 330 331 330 335 338 342 341 339 334 332 335 326 331 306 243 228 224 230 227 247 258 236 230 224 218 213 218 228 226 223 223 225 231 234 231 228 230 230 233 230 228 229 231 230 226 224 223 222 226 231 238 246
323 325 325 325 324 325 330 333 337 335 332 325 322 328 327 325 302 251 231 230 236 241 235 227 225 224 220 222 226 232 232 230 233 232 231 231 231 230 229 228 226 223 220 220 220 221 222 224 227 233 241 248 255 263
319 319 321 320 321 319 320 324 328 330 327 323 320 321 319 309 302 298 264 239 233 229 228 229 229 230 236 238 235 232 229 227 225 220 220 223 225 226 227 226 224 222 222 224 226 230 233 237 242 247 253 258 267 272
313 314 318 316 316 315 312 313 319 324 319 315 313 315 312 305 282 265 268 262 257 247 241 232 228 231 236 238 240 241 242 240 238 236 233 233 234 234 235 237 240 243 246 250 252 254 256 258 260 263 268 270 268 258
306 308 315 313 310 311 309 305 306 314 316 310 308 302 299 307 315 302 277 259 260 261 243 235 233 244 244 245 249 250 251 254 259 261 260 258 256 256 256 256 256 257 259 261 262 264 266 269 267 262 255 245 232 230
300 301 307 310 307 305 305 301 296 300 309 306 297 289 275 269 281 297 292 262 242 204 189 193 198 195 188 200 209 221 238 244 252 257 260 264 265 266 266 265 263 260 259 256 252 250 249 243 234 226 220 217 220 225
295 297 299 302 302 301 300 297 292 290 295 297 292 289 275 260 254 252 260 273 251 226 212 203 200 194 205 216 208 200 198 204 221 223 216 221 233 240 235 234 231 228 231 228 223 221 217 213 212 211 213 216 217 219
287 289 290 293 295 295 295 293 290 283 275 282 290 289 276 264 256 248 246 245 248 241 236 227 219 210 213 199 192 197 213 214 199 191 188 203 211 205 206 218 219 214 213 211 211 211 210 210 211 212 207 207 205 198
280 282 282 285 286 287 288 290 284 281 270 267 275 279 280 270 263 253 248 245 238 236 232 242 241 240 234 218 216 209 182 187 194 202 201 201 203 189 193 195 194 198 202 201 203 208 210 213 214 205 203 203 206 206
274 274 275 276 279 279 279 281 279 277 271 261 257 265 273 270 270 263 253 251 247 239 239 239 245 252 249 243 242 243 237 228 212 212 215 216 212 216 209 205 204 204 201 201 205 209 216 218 215 212 207 207 209 206
267 266 266 267 270 271 271 271 270 267 268 260 254 249 254 259 261 266 262 253 248 244 244 245 246 251 253 247 243 247 251 250 247 239 233 230 229 227 227 227 224 223 221 217 214 214 216 221 223 219 214 212 216 224
262 259 258 258 260 262 264 259 260 260 259 257 251 245 237 247 248 245 246 242 239 247 249 246 245 244 248 249 248 249 250 254 255 250 245 242 242 244 246 244 237 232 232 232 232 232 230 227 225 226 226 226 230 234
258 255 254 253 253 255 257 251 249 252 251 250 245 246 236 236 238 231 217 223 232 249 263 262 255 250 248 247 248 251 252 252 251 250 249 249 250 249 246 245 245 245 242 239 238 238 238 236 236 236 235 234 236 239
247 245 245 246 246 248 251 247 241 243 243 242 242 242 235 230 231 226 217 220 222 221 218 224 226 229 237 237 242 247 251 252 253 253 253 255 256 253 249 247 244 241 241 241 240 238 238 240 241 242 242 242 242 242
239 238 238 239 240 241 242 238 233 237 232 235 239 236 233 230 228 221 221 223 222 221 219 215 213 211 205 199 198 209 221 236 247 250 252 252 253 253 250 246 245 245 246 246 247 247 247 245 244 244 244 244 244 244
236 236 235 235 236 235 236 231 227 229 222 230 233 230 230 231 228 219 225 226 223 222 224 227 228 229 230 232 235 239 241 243 250 260 273 278 278 269 259 252 248 247 245 244 243 243 243 244 245 245 247 248 247 243
247 243 237 230 229 229 227 223 222 219 220 226 227 225 227 229 227 223 222 226 225 226 230 232 236 241 244 246 250 253 256 259 263 267 272 277 283 289 292 287 275 263 253 245 244 243 245 247 248 247 245 246 248 244
257 241 228 222 219 216 212 213 215 215 217 224 226 227 225 225 226 228 227 227 229 229 231 234 238 242 247 250 253 256 258 260 263 266 270 273 276 282 288 296 301 296 279 260 249 243 242 242 243 243 241 239 241 239
248 237 221 213 208 208 207 205 205 209 214 217 220 221 221 222 226 229 231 232 235 237 239 242 246 248 251 255 258 260 260 260 261 264 268 272 277 283 290 296 302 307 304 286 259 242 236 236 237 237 239 239 237 236
250 231 220 213 211 211 209 208 206 208 213 213 214 216 217 219 221 223 223 224 226 229 233 236 240 243 247 251 256 260 262 261 262 265 269 274 278 283 290 297 303 308 312 305 279 248 234 232 233 234 236 237 237 237
205 223 219 214 211 212 212 214 212 209 210 211 214 220 221 227 232 232 231 231 231 231 231 233 237 240 244 248 253 257 258 259 260 264 269 275 280 286 292 298 305 311 316 315 298 259 238 232 230 229 232 235 237 238
207 194 202 212 214 213 213 215 217 218 217 218 219 222 226 230 233 232 233 233 234 237 239 239 241 243 245 247 250 255 255 257 262 267 272 276 280 287 293 299 307 314 319 325 314 275 246 230 226 227 229 230 233 233